time_stamp(utc),avg(mph),gust(mph),direction(deg),12m_air_temp(f),sonic_u(cm/s),sonic_v(cm/s),sonic_w(cm/s),pressure,2m_air_temp(f),pyranometer(W/m^2)
"2020-09-19 00:03:00+00",10.8,14.8,,64.9,-80,467,2,1015.98,63.7,0
"2020-09-19 00:08:00+00",11.6,13.6,,65,-54,520,12,1016.07,63.7,0
"2020-09-19 00:13:00+00",10.6,11.6,,65,-95,474,10,1016.2,63.8,0
"2020-09-19 00:18:00+00",10.7,12.7,,65,-74,463,-5,1016.4,63.9,0
"2020-09-19 00:23:00+00",10.5,11.5,,65,-53,471,10,1016.53,63.9,0
"2020-09-19 00:28:00+00",12.0,13.0,,65.1,-71,527,-2,1016.54,63.9,0
"2020-09-19 00:33:00+00",10.9,13.9,,65.1,-65,478,18,1016.7,64,0
"2020-09-19 00:38:00+00",9.7,10.7,,65.1,-45,427,3,1016.77,64,0
"2020-09-19 00:43:00+00",11.1,13.1,,65.2,-61,490,-2,1016.82,64.1,0
"2020-09-19 00:48:00+00",12.3,13.3,,65.2,-87,541,-9,1016.86,64.1,0
"2020-09-19 00:53:00+00",10.9,12.9,,65.2,-141,468,16,1017.03,64.2,0
"2020-09-19 00:58:00+00",15.1,17.1,,64.7,-197,629,9,1017.07,64.3,0
"2020-09-19 01:03:00+00",17.8,19.8,,64.9,-263,751,-6,1017.03,64.3,0
"2020-09-19 01:08:00+00",16.1,19.1,,64.7,-265,656,30,1017.15,64.3,0
"2020-09-19 01:13:00+00",17.0,19.0,,64.5,-259,717,12,1017.32,64.1,0
"2020-09-19 01:18:00+00",20.0,24.0,,64.4,-209,876,37,1017.34,64,0
"2020-09-19 01:23:00+00",18.7,22.7,,64.4,-127,810,42,1017.4,63.8,0
"2020-09-19 01:28:00+00",21.7,24.7,,64.3,-265,927,39,1017.48,63.8,0
"2020-09-19 01:33:00+00",21.5,24.5,,63.9,-321,901,29,1017.62,63.7,0
"2020-09-19 01:38:00+00",23.2,25.2,,63.6,-329,992,19,1017.67,63.5,0
"2020-09-19 01:43:00+00",22.1,25.1,,63.4,-217,958,6,1017.75,63.3,0
"2020-09-19 01:48:00+00",20.1,23.1,,63.2,-198,868,43,1017.91,63.1,0
"2020-09-19 01:53:00+00",23.3,24.3,,63,-298,997,22,1017.93,62.9,0
"2020-09-19 01:58:00+00",22.6,25.6,,62.8,-259,986,16,1017.94,62.7,0
"2020-09-19 02:03:00+00",23.1,27.1,,62.6,-331,996,39,1017.98,62.5,0
"2020-09-19 02:08:00+00",21.4,23.4,,62.4,-254,914,34,1018.05,62.2,0
"2020-09-19 02:13:00+00",23.0,26.0,,62.1,-231,1008,17,1018.08,62,0
"2020-09-19 02:18:00+00",23.4,26.4,,61.9,-299,1020,34,1018.12,61.8,0
"2020-09-19 02:23:00+00",23.3,27.3,,61.7,-264,1014,26,1018.28,61.7,0
"2020-09-19 02:28:00+00",21.7,27.7,,61.6,-230,934,1,1018.37,61.5,0
"2020-09-19 02:33:00+00",20.5,25.5,,61.4,-264,905,27,1018.45,61.3,0
"2020-09-19 02:38:00+00",22.7,25.7,,61.2,-280,989,35,1018.56,61.1,0
"2020-09-19 02:43:00+00",22.8,26.8,,61.1,-198,1012,23,1018.6,60.9,0
"2020-09-19 02:48:00+00",22.5,27.5,,61.2,-251,982,17,1018.63,60.8,0
"2020-09-19 02:53:00+00",23.6,28.6,,61.2,-269,1025,19,1018.74,60.8,0
"2020-09-19 02:58:00+00",22.6,26.6,,61.1,-212,970,22,1018.72,60.7,0
"2020-09-19 03:03:00+00",21.6,27.6,,60.9,-179,951,44,1018.76,60.6,0
"2020-09-19 03:08:00+00",21.3,28.3,,60.7,-202,943,38,1018.78,60.4,0
"2020-09-19 03:13:00+00",25.2,28.2,,60.4,-211,1100,25,1018.85,60.1,0
"2020-09-19 03:18:00+00",23.6,28.6,,60.3,-184,1035,22,1018.96,59.9,0
"2020-09-19 03:23:00+00",24.8,27.8,,60.1,-167,1093,11,1018.99,59.6,0
"2020-09-19 03:28:00+00",22.5,28.5,,59.9,-246,986,18,1019,59.4,0
"2020-09-19 03:33:00+00",20.6,24.6,,59.6,-265,898,36,1019.19,59.1,0
"2020-09-19 03:38:00+00",20.0,24.0,,59.3,-219,867,22,1019.24,58.9,0
"2020-09-19 03:43:00+00",21.5,25.5,,59,-282,940,35,1019.26,58.6,0
"2020-09-19 03:48:00+00",21.7,23.7,,58.8,-221,936,14,1019.31,58.3,0
"2020-09-19 03:53:00+00",23.6,28.6,,58.6,-277,1022,19,1019.4,58,0
"2020-09-19 03:58:00+00",18.9,20.9,,58.2,-237,826,13,1019.52,57.7,0
"2020-09-19 04:03:00+00",19.7,22.7,,58,-217,871,6,1019.55,57.4,0
"2020-09-19 04:08:00+00",20.3,25.3,,57.8,-196,879,8,1019.58,57.1,0
"2020-09-19 04:13:00+00",18.5,22.5,,57.5,-263,799,5,1019.67,56.8,0
"2020-09-19 04:18:00+00",16.7,19.7,,57.2,-190,715,23,1019.74,56.6,0
"2020-09-19 04:23:00+00",19.2,22.2,,57,-215,835,22,1019.82,56.3,0
"2020-09-19 04:28:00+00",20.3,22.3,,56.9,-296,848,39,1019.8,56.1,0
"2020-09-19 04:33:00+00",20.7,23.7,,56.6,-209,913,6,1019.89,55.9,0
"2020-09-19 04:38:00+00",19.1,22.1,,56.5,-243,814,11,1019.9,55.7,0
"2020-09-19 04:43:00+00",18.5,23.5,,56.3,-212,824,17,1019.92,55.5,0
"2020-09-19 04:48:00+00",19.7,21.7,,56.1,-249,837,7,1019.96,55.3,0
"2020-09-19 04:53:00+00",20.3,24.3,,56,-207,869,5,1019.99,55.1,0
"2020-09-19 04:58:00+00",19.6,21.6,,55.8,-240,844,20,1019.97,54.9,0
"2020-09-19 05:03:00+00",17.2,19.2,,55.5,-233,733,26,1020.04,54.8,0
"2020-09-19 05:08:00+00",17.4,20.4,,55.4,-190,749,12,1020.12,54.6,0
"2020-09-19 05:13:00+00",18.8,21.8,,55.3,-213,799,14,1020.16,54.5,0
"2020-09-19 05:18:00+00",17.8,20.8,,55.2,-152,794,6,1020.28,54.4,0
"2020-09-19 05:23:00+00",17.7,20.7,,55.1,-210,769,8,1020.32,54.2,0
"2020-09-19 05:28:00+00",17.3,19.3,,54.9,-188,752,15,1020.48,54.1,0
"2020-09-19 05:33:00+00",16.3,20.3,,54.9,-168,694,12,1020.48,54,0
"2020-09-19 05:38:00+00",16.4,20.4,,54.8,-179,712,12,1020.57,53.8,0
"2020-09-19 05:43:00+00",16.8,20.8,,54.6,-203,703,16,1020.66,53.7,0
"2020-09-19 05:48:00+00",17.6,24.6,,54.5,-187,741,15,1020.74,53.6,0
"2020-09-19 05:53:00+00",16.2,19.2,,54.3,-187,717,7,1020.75,53.5,0
"2020-09-19 05:58:00+00",15.4,19.4,,54.1,-158,669,18,1020.83,53.3,0
"2020-09-19 06:03:00+00",16.3,22.3,,54.2,-136,711,27,1020.76,53.2,0
"2020-09-19 06:08:00+00",16.2,19.2,,54,-149,713,10,1020.88,53.1,0
"2020-09-19 06:13:00+00",16.0,19.0,,53.8,-65,722,14,1020.92,53,0
"2020-09-19 06:18:00+00",17.2,18.2,,53.8,-52,764,18,1021.02,52.8,0
"2020-09-19 06:23:00+00",20.4,24.4,,54.1,-67,906,11,1021,52.8,0
"2020-09-19 06:28:00+00",19.1,24.1,,54.1,-40,858,0,1021.09,52.9,0
"2020-09-19 06:33:00+00",16.1,18.1,,53.7,-59,708,8,1021.13,52.8,0
"2020-09-19 06:38:00+00",15.3,20.3,,53.4,-87,659,10,1021.18,52.5,0
"2020-09-19 06:43:00+00",15.1,17.1,,53.2,-47,678,10,1021.12,52.3,0
"2020-09-19 06:48:00+00",18.8,23.8,,53.5,-98,827,14,1021.16,52.2,0
"2020-09-19 06:53:00+00",16.8,18.8,,53.3,-58,740,11,1021.31,52.2,0
"2020-09-19 06:58:00+00",16.9,20.9,,53.3,-58,775,25,1021.44,52.2,0
"2020-09-19 07:03:00+00",17.5,20.5,,53.3,-76,782,27,1021.42,52.1,0
"2020-09-19 07:08:00+00",13.5,17.5,,53,-11,603,23,1021.54,52,0
"2020-09-19 07:13:00+00",16.0,19.0,,52.8,-88,708,15,1021.67,51.8,0
"2020-09-19 07:18:00+00",14.3,17.3,,52.8,-68,634,2,1021.69,51.7,0
"2020-09-19 07:23:00+00",16.5,19.5,,52.7,-56,744,9,1021.75,51.6,0
"2020-09-19 07:28:00+00",14.2,16.2,,52.6,-100,636,14,1021.75,51.5,0
"2020-09-19 07:33:00+00",15.1,18.1,,52.4,-78,676,0,1021.83,51.4,0
"2020-09-19 07:38:00+00",16.4,20.4,,52.5,-81,735,18,1021.83,51.3,0
"2020-09-19 07:43:00+00",14.2,17.2,,52.2,-70,628,20,1021.91,51.2,0
"2020-09-19 07:48:00+00",16.8,19.8,,52.2,-30,737,8,1021.97,51,0
"2020-09-19 07:53:00+00",17.7,19.7,,52.2,-56,777,19,1021.87,51.1,0
"2020-09-19 07:58:00+00",17.4,20.4,,52.2,-81,757,26,1021.92,51,0
"2020-09-19 08:03:00+00",18.8,22.8,,52.1,-74,822,16,1021.88,51,0
"2020-09-19 08:08:00+00",16.9,20.9,,52,-12,734,23,1021.98,50.9,0
"2020-09-19 08:13:00+00",18.1,23.1,,52,-74,800,15,1021.94,50.9,0
"2020-09-19 08:18:00+00",18.1,20.1,,51.9,-86,811,-2,1022.07,50.8,0
"2020-09-19 08:23:00+00",20.6,23.6,,51.8,-38,922,4,1022.14,50.6,0
"2020-09-19 08:28:00+00",17.0,20.0,,51.5,-61,763,15,1022.23,50.5,0
"2020-09-19 08:33:00+00",18.6,21.6,,51.5,-39,835,11,1022.24,50.4,0
"2020-09-19 08:38:00+00",17.3,22.3,,51.2,-75,735,20,1022.28,50.2,0
"2020-09-19 08:43:00+00",19.4,22.4,,51.3,-75,861,-1,1022.22,50.1,0
"2020-09-19 08:48:00+00",16.9,20.9,,51.2,-103,735,22,1022.19,50.1,0
"2020-09-19 08:53:00+00",16.4,21.4,,51,-49,732,9,1022.28,50,0
"2020-09-19 08:58:00+00",17.1,20.1,,50.9,-48,767,15,1022.36,49.9,0
"2020-09-19 09:03:00+00",16.6,19.6,,50.9,-106,735,23,1022.37,49.8,0
"2020-09-19 09:08:00+00",17.6,19.6,,50.8,-108,780,12,1022.38,49.7,0
"2020-09-19 09:13:00+00",17.9,21.9,,50.7,-96,803,17,1022.53,49.6,0
"2020-09-19 09:18:00+00",19.0,25.0,,50.8,-35,849,18,1022.62,49.6,0
"2020-09-19 09:23:00+00",19.1,22.1,,50.7,-63,834,0,1022.58,49.6,0
"2020-09-19 09:28:00+00",19.4,23.4,,50.6,-89,848,0,1022.67,49.5,0
"2020-09-19 09:33:00+00",16.6,19.6,,50.2,-54,745,7,1022.72,49.4,0
"2020-09-19 09:38:00+00",17.7,22.7,,50,-84,801,9,1022.72,49.2,0
"2020-09-19 09:43:00+00",17.1,22.1,,49.9,-54,743,19,1022.73,49,0
"2020-09-19 09:48:00+00",17.2,19.2,,49.8,-88,758,19,1022.9,48.8,0
"2020-09-19 09:53:00+00",18.1,22.1,,49.7,-54,818,19,1022.84,48.7,0
"2020-09-19 09:58:00+00",17.4,20.4,,49.6,-40,782,16,1022.94,48.6,0
"2020-09-19 10:03:00+00",18.9,20.9,,49.7,-80,842,10,1022.91,48.5,0
"2020-09-19 10:08:00+00",15.3,18.3,,49.4,-61,670,12,1022.98,48.5,0
"2020-09-19 10:13:00+00",14.8,16.8,,49.3,-77,644,21,1023.17,48.3,0
"2020-09-19 10:18:00+00",19.3,23.3,,49.4,-94,849,9,1023.17,48.2,0
"2020-09-19 10:23:00+00",17.0,19.0,,49.2,-69,763,-2,1023.16,48.1,0
"2020-09-19 10:28:00+00",16.0,19.0,,48.8,-100,709,17,1023.24,47.9,0
"2020-09-19 10:33:00+00",16.8,19.8,,48.9,-138,741,7,1023.39,47.8,0
"2020-09-19 10:38:00+00",16.3,19.3,,48.8,-136,724,12,1023.49,47.8,0
"2020-09-19 10:43:00+00",13.8,17.8,,48.6,-94,605,26,1023.56,47.7,0
"2020-09-19 10:48:00+00",17.0,20.0,,48.4,-107,742,8,1023.63,47.5,0
"2020-09-19 10:53:00+00",17.4,20.4,,48.7,-107,763,0,1023.79,47.5,0
"2020-09-19 10:58:00+00",15.0,18.0,,48.6,-120,651,9,1023.92,47.6,0
"2020-09-19 11:03:00+00",16.1,18.1,,48.4,-162,706,9,1023.94,47.5,0
"2020-09-19 11:08:00+00",16.2,19.2,,48.4,-139,716,12,1024.02,47.5,0
"2020-09-19 11:13:00+00",16.7,19.7,,48.3,-116,736,11,1024.05,47.5,0
"2020-09-19 11:18:00+00",18.2,23.2,,48.4,-79,802,17,1024.09,47.5,0
"2020-09-19 11:23:00+00",17.1,19.1,,48.3,-57,767,11,1024.12,47.8,0
"2020-09-19 11:28:00+00",18.0,22.0,,48.3,-21,808,0,1024.25,47.9,0
"2020-09-19 11:33:00+00",17.1,19.1,,48.5,-74,758,11,1024.24,48.4,0
"2020-09-19 11:38:00+00",18.4,20.4,,48.7,-69,806,13,1024.2,48.9,0
"2020-09-19 11:43:00+00",18.7,21.7,,48.8,-95,846,14,1024.27,49.3,0
"2020-09-19 11:48:00+00",17.8,21.8,,49,-127,796,32,1024.34,49.8,0
"2020-09-19 11:53:00+00",16.2,18.2,,49.2,-97,719,24,1024.38,50.2,0
"2020-09-19 11:58:00+00",15.9,18.9,,49.3,-86,716,7,1024.41,50.6,0
"2020-09-19 12:03:00+00",14.3,18.3,,49.5,-59,621,32,1024.4,51,0
"2020-09-19 12:08:00+00",18.7,20.7,,49.8,-79,826,-1,1024.42,51.4,0
"2020-09-19 12:13:00+00",16.2,18.2,,50,-89,703,4,1024.37,51.6,0
"2020-09-19 12:18:00+00",18.5,21.5,,50,-109,827,22,1024.49,51.9,0
"2020-09-19 12:23:00+00",15.5,17.5,,50.2,-50,679,6,1024.48,52.2,0
"2020-09-19 12:28:00+00",16.1,23.1,,50.4,-87,719,13,1024.37,52.6,0
"2020-09-19 12:33:00+00",20.1,23.1,,50.5,-39,895,-2,1024.22,52.8,0
"2020-09-19 12:38:00+00",15.5,18.5,,50.9,-21,679,11,1024.39,52.9,0
"2020-09-19 12:43:00+00",17.5,19.5,,51,1,777,1,1024.5,53.2,0
"2020-09-19 12:48:00+00",18.4,21.4,,51.2,-82,816,19,1024.52,53.4,0
"2020-09-19 12:53:00+00",18.3,22.3,,51.5,-18,811,14,1024.59,53.8,0
"2020-09-19 12:58:00+00",17.8,19.8,,51.9,-17,799,19,1024.7,53.9,0
"2020-09-19 13:03:00+00",16.3,21.3,,52.6,21,743,12,1024.67,54.4,0
"2020-09-19 13:08:00+00",15.0,19.0,,52.8,38,660,14,1024.77,54.9,0
"2020-09-19 13:13:00+00",14.6,17.6,,53.1,48,646,2,1024.78,55.2,0
"2020-09-19 13:18:00+00",14.0,16.0,,53.5,36,622,5,1024.84,55.7,0
"2020-09-19 13:23:00+00",14.4,18.4,,53.7,95,629,-7,1024.92,55.8,0
"2020-09-19 13:28:00+00",15.3,18.3,,53.9,63,659,-5,1024.88,55.3,0
"2020-09-19 13:33:00+00",15.0,19.0,,54.4,46,665,8,1024.78,55.9,0
"2020-09-19 13:38:00+00",17.2,21.2,,55.1,57,764,22,1024.91,56.6,0
"2020-09-19 13:43:00+00",23.7,27.7,,56.3,544,875,14,1024.93,57.4,0
"2020-09-19 13:48:00+00",25.5,30.5,,56.7,728,830,1,1024.97,58.4,0
"2020-09-19 13:53:00+00",24.8,27.8,,56.6,654,818,21,1025.04,58.4,0
"2020-09-19 13:58:00+00",24.6,28.6,,56.8,718,779,14,1024.96,58.7,0
"2020-09-19 14:03:00+00",23.6,26.6,,56.8,539,828,12,1025.06,59,0
"2020-09-19 14:08:00+00",27.8,31.8,,56.8,652,965,-10,1025.14,59.3,0
"2020-09-19 14:13:00+00",24.6,27.6,,57.2,598,860,28,1025.23,58.7,0
"2020-09-19 14:18:00+00",24.7,27.7,,57,626,840,-5,1025.3,58.5,0
"2020-09-19 14:23:00+00",27.6,30.6,,57,785,895,6,1025.36,58.5,0
"2020-09-19 14:28:00+00",27.5,31.5,,56.9,783,886,9,1025.43,58.5,0
"2020-09-19 14:33:00+00",26.3,31.3,,57.2,573,1014,13,1025.46,59,0
"2020-09-19 14:38:00+00",25.7,29.7,,57.3,748,831,35,1025.36,58.9,0
"2020-09-19 14:43:00+00",24.6,27.6,,57.4,696,799,20,1025.55,58.9,0
"2020-09-19 14:48:00+00",22.4,26.4,,57.7,531,799,27,1025.57,60,0
"2020-09-19 14:53:00+00",25.3,28.3,,57.5,516,979,11,1025.61,59.9,0
"2020-09-19 14:58:00+00",25.4,29.4,,57.7,675,850,64,1025.68,59.1,0
"2020-09-19 15:03:00+00",24.3,28.3,,57.7,609,812,27,1025.71,59.4,0
"2020-09-19 15:08:00+00",22.3,26.3,,57.9,414,881,10,1025.72,60.1,0
"2020-09-19 15:13:00+00",23.4,27.4,,57.8,788,693,73,1025.7,60.5,0
"2020-09-19 15:18:00+00",26.8,31.8,,57.9,564,1057,13,1025.79,60.8,0
"2020-09-19 15:23:00+00",26.8,29.8,,57.6,564,1015,4,1025.71,60.2,0
"2020-09-19 15:28:00+00",23.2,29.2,,58,411,908,31,1025.73,59.9,0
"2020-09-19 15:33:00+00",26.9,28.9,,57.9,606,972,-5,1025.7,60.5,0
"2020-09-19 15:38:00+00",24.3,28.3,,58.3,529,903,24,1025.59,60.8,0
"2020-09-19 15:43:00+00",23.5,26.5,,58,645,777,24,1025.63,61,0
"2020-09-19 15:48:00+00",25.4,28.4,,57.9,648,850,12,1025.58,60.9,0
"2020-09-19 15:53:00+00",23.2,26.2,,58,536,838,2,1025.63,60.9,0
"2020-09-19 15:58:00+00",21.9,24.9,,57.8,445,857,4,1025.7,60.8,0
"2020-09-19 16:03:00+00",22.2,24.2,,58.1,541,768,17,1025.64,60.9,0
"2020-09-19 16:08:00+00",22.1,25.1,,58.1,595,771,31,1025.54,61,0
"2020-09-19 16:13:00+00",26.9,29.9,,58,673,909,2,1025.62,61,0
"2020-09-19 16:18:00+00",23.8,27.8,,58,682,744,14,1025.77,60.9,0
"2020-09-19 16:23:00+00",26.3,28.3,,58,694,872,5,1025.65,60.8,0
"2020-09-19 16:28:00+00",19.9,24.9,,58.1,502,703,13,1025.72,61.1,0
"2020-09-19 16:33:00+00",21.2,23.2,,58.1,614,673,15,1025.91,61.1,0
"2020-09-19 16:38:00+00",20.6,24.6,,58.3,382,818,15,1025.73,61.3,0
"2020-09-19 16:43:00+00",21.0,24.0,,58.1,435,808,4,1025.85,61.1,0
"2020-09-19 16:48:00+00",20.0,23.0,,58.2,430,746,18,1025.86,61.2,0
"2020-09-19 16:53:00+00",21.2,23.2,,58.1,596,687,47,1025.93,61,0
"2020-09-19 16:58:00+00",21.1,24.1,,58.4,619,702,37,1025.9,61.2,0
"2020-09-19 17:03:00+00",18.4,21.4,,58.3,363,698,15,1025.82,61.1,0
"2020-09-19 17:08:00+00",21.4,23.4,,58.3,666,663,20,1025.83,61.3,0
"2020-09-19 17:13:00+00",17.6,19.6,,58.1,466,578,14,1025.88,61.1,0
"2020-09-19 17:18:00+00",22.0,25.0,,58.2,636,718,3,1025.85,61.2,0
"2020-09-19 17:23:00+00",22.1,24.1,,58.2,546,762,-18,1025.87,61.6,0
"2020-09-19 17:28:00+00",20.6,22.6,,58.3,655,644,12,1025.84,61.5,0
"2020-09-19 17:33:00+00",21.2,22.2,,58.3,604,672,11,1025.81,61.3,0
"2020-09-19 17:38:00+00",20.1,22.1,,58.3,570,650,-5,1025.83,61.4,0
"2020-09-19 17:43:00+00",21.0,24.0,,58.6,574,715,5,1025.9,61.7,0
"2020-09-19 17:48:00+00",21.4,24.4,,58.7,646,698,22,1025.88,61.7,0
"2020-09-19 17:53:00+00",20.9,21.9,,58.3,715,619,18,1025.95,61.6,0
"2020-09-19 17:58:00+00",19.6,23.6,,58.8,735,494,48,1025.94,61.8,0
"2020-09-19 18:03:00+00",19.0,22.0,,58.6,585,579,13,1025.85,62,0
"2020-09-19 18:08:00+00",20.3,24.3,,58.7,588,645,32,1025.82,62,0
"2020-09-19 18:13:00+00",21.9,25.9,,58.7,732,656,27,1025.82,62,0
"2020-09-19 18:18:00+00",18.7,21.7,,58.8,728,437,43,1025.78,62.2,0
"2020-09-19 18:23:00+00",18.7,21.7,,59.1,666,518,44,1025.74,62.5,0
"2020-09-19 18:28:00+00",22.2,23.2,,58.8,639,709,6,1025.75,62.2,0
"2020-09-19 18:33:00+00",17.3,21.3,,59.3,654,474,81,1025.66,62.4,0
"2020-09-19 18:38:00+00",19.6,22.6,,59.2,678,566,33,1025.73,62.5,0
"2020-09-19 18:43:00+00",20.9,22.9,,59.1,709,609,14,1025.58,62.3,0
"2020-09-19 18:48:00+00",15.6,18.6,,59.5,609,354,58,1025.53,62.5,0
"2020-09-19 18:53:00+00",17.5,21.5,,59.1,703,401,24,1025.43,62.6,0
"2020-09-19 18:58:00+00",19.9,22.9,,59.2,732,509,17,1025.47,62.6,0
"2020-09-19 19:03:00+00",16.8,19.8,,59.2,633,408,35,1025.49,62.8,0
"2020-09-19 19:08:00+00",15.6,20.6,,59.6,512,479,18,1025.47,62.8,0
"2020-09-19 19:13:00+00",18.5,21.5,,59.2,602,549,12,1025.47,62.6,0
"2020-09-19 19:18:00+00",17.2,19.2,,59.5,692,375,46,1025.53,62.9,0
"2020-09-19 19:23:00+00",15.0,18.0,,59.9,560,366,21,1025.61,63.1,0
"2020-09-19 19:28:00+00",18.5,20.5,,59.7,561,585,55,1025.61,63,0
"2020-09-19 19:33:00+00",14.4,16.4,,59.5,395,472,48,1025.54,62.7,0
"2020-09-19 19:38:00+00",17.8,21.8,,59.7,584,541,32,1025.55,62.8,0
"2020-09-19 19:43:00+00",16.2,18.2,,59.8,493,498,31,1025.5,62.7,0
"2020-09-19 19:48:00+00",17.4,20.4,,60.2,647,474,52,1025.44,63,0
"2020-09-19 19:53:00+00",19.0,21.0,,59.6,685,522,19,1025.53,62.6,0
"2020-09-19 19:58:00+00",17.9,20.9,,59.8,627,491,12,1025.48,62.7,0
"2020-09-19 20:03:00+00",17.7,20.7,,59.7,544,542,7,1025.35,62.7,0
"2020-09-19 20:08:00+00",14.4,18.4,,59.7,454,452,48,1025.33,62.6,0
"2020-09-19 20:13:00+00",15.7,20.7,,60,485,475,34,1025.17,62.7,0
"2020-09-19 20:18:00+00",16.6,20.6,,59.9,626,418,29,1025.23,62.6,0
"2020-09-19 20:23:00+00",12.8,17.8,,60.1,522,263,58,1025.36,62.7,0
"2020-09-19 20:28:00+00",13.6,19.6,,60.1,494,377,54,1025.21,62.9,0
"2020-09-19 20:33:00+00",13.8,15.8,,60.1,434,420,35,1025.34,62.8,0
"2020-09-19 20:38:00+00",13.1,16.1,,60.1,473,344,47,1025.48,62.8,0
"2020-09-19 20:43:00+00",14.7,16.7,,59.9,603,311,20,1025.34,62.8,0
"2020-09-19 20:48:00+00",17.2,18.2,,59.9,559,519,19,1025.42,62.6,0
"2020-09-19 20:53:00+00",15.7,16.7,,59.8,470,485,4,1025.52,62.2,0
"2020-09-19 20:58:00+00",13.2,14.2,,60,469,360,21,1025.53,62.3,0
"2020-09-19 21:03:00+00",15.4,18.4,,60,604,358,4,1025.53,62.3,0
"2020-09-19 21:08:00+00",12.8,15.8,,59.9,467,316,35,1025.51,62.2,0
"2020-09-19 21:13:00+00",16.1,19.1,,59.9,564,455,7,1025.43,62.1,0
"2020-09-19 21:18:00+00",15.5,18.5,,59.8,470,471,8,1025.21,61.7,0
"2020-09-19 21:23:00+00",14.4,16.4,,59.9,530,389,19,1025.42,61.6,0
"2020-09-19 21:28:00+00",9.5,12.5,,60,358,210,38,1025.59,61.7,0
"2020-09-19 21:33:00+00",13.8,14.8,,60.1,429,428,12,1025.48,61.7,0
"2020-09-19 21:38:00+00",14.0,16.0,,59.8,443,413,20,1025.41,61.6,0
"2020-09-19 21:43:00+00",14.5,16.5,,60,507,394,30,1025.32,61.5,0
"2020-09-19 21:48:00+00",16.2,18.2,,59.9,455,531,-3,1025.43,61.3,0
"2020-09-19 21:53:00+00",14.7,16.7,,59.9,478,437,8,1025.46,61,0
"2020-09-19 21:58:00+00",14.1,17.1,,59.9,450,420,19,1025.53,60.8,0
"2020-09-19 22:03:00+00",9.8,10.8,,59.9,294,294,30,1025.67,60.7,0
"2020-09-19 22:08:00+00",13.0,16.0,,59.9,396,416,23,1025.67,60.6,0
"2020-09-19 22:13:00+00",9.5,12.5,,59.8,297,281,28,1025.74,60.3,0
"2020-09-19 22:18:00+00",12.6,14.6,,59.8,399,394,28,1025.76,60.1,0
"2020-09-19 22:23:00+00",13.5,15.5,,59.7,374,438,3,1025.76,59.9,0
"2020-09-19 22:28:00+00",11.0,12.0,,59.7,393,301,24,1025.83,59.7,0
"2020-09-19 22:33:00+00",13.0,14.0,,59.6,410,396,13,1025.89,59.4,0
"2020-09-19 22:38:00+00",10.7,11.7,,59.6,363,304,15,1025.91,59.1,0
"2020-09-19 22:43:00+00",12.3,14.3,,59.5,385,380,23,1025.92,58.8,0
"2020-09-19 22:48:00+00",10.7,12.7,,59.2,352,316,13,1025.91,58.5,0
"2020-09-19 22:53:00+00",9.9,11.9,,59.1,365,254,18,1026.04,58.2,0
"2020-09-19 22:58:00+00",8.4,9.4,,58.9,262,257,13,1026.08,57.8,0
"2020-09-19 23:03:00+00",10.0,11.0,,58.9,282,316,6,1026.16,57.4,0
"2020-09-19 23:08:00+00",8.6,9.6,,58.9,300,231,21,1026.08,57.1,0
"2020-09-19 23:13:00+00",11.0,13.0,,58.7,303,359,8,1026.1,56.8,0
"2020-09-19 23:18:00+00",12.1,15.1,,58.9,368,380,14,1025.96,56.8,0
"2020-09-19 23:23:00+00",10.5,12.5,,59.1,316,327,9,1026.14,57,0
"2020-09-19 23:28:00+00",9.8,11.8,,58.9,334,261,25,1026.12,56.8,0
"2020-09-19 23:33:00+00",10.4,11.4,,59,312,328,16,1026.25,56.6,0
"2020-09-19 23:38:00+00",9.0,10.0,,58.8,271,278,13,1026.13,56.7,0
"2020-09-19 23:43:00+00",12.5,14.5,,59.4,332,403,3,1026.11,56.9,0
"2020-09-19 23:48:00+00",11.0,13.0,,59.3,344,337,13,1026.19,57.1,0
"2020-09-19 23:53:00+00",8.9,10.9,,59,255,282,15,1026.31,56.9,0
"2020-09-19 23:58:00+00",11.1,12.1,,59.3,355,333,13,1026.36,57,0
